Change the Weather History Date:

Thursday, May 16, 2013

  Actual Average Record
Temperature  
Mean Temperature 58 °F -  
Max Temperature 82 °F 64 °F 82 °F (2013)
Min Temperature 33 °F 44 °F 26 °F (2014)
Degree Days  
Heating Degree Days 8    
Growing Degree Days 8 (Base 50)    
Moisture  
Dew Point 44 °F    
Average Humidity 50    
Maximum Humidity 88    
Minimum Humidity 17    
Precipitation  
Precipitation 0.11 in - - ()
Sea Level Pressure  
Sea Level Pressure 29.87 in    
Wind  
Wind Speed 4 mph (SE)    
Max Wind Speed 15 mph    
Max Gust Speed 22 mph    
Visibility 10 miles    
Events Rain , Thunderstorm    
Averages and records for this station are not official NWS values.
T = Trace of Precipitation, MM = Missing Value Source: NWS Daily Summary

Daily Weather History Graph

Daily Weather History Graph

Search for Another Location

Airport or City:

Trip Planner

Search our weather history database for the weather conditions in past years. The results will help you decide how hot, cold, wet, or windy it might be!

Date:

Astronomy

May. 16, 2013 Rise Set
Actual Time 5:57 AM CDT 8:45 PM CDT
Civil Twilight 5:24 AM CDT 9:19 PM CDT
Nautical Twilight 4:41 AM CDT 10:02 PM CDT
Astronomical Twilight 3:52 AM CDT 10:51 PM CDT
Moon 11:36 AM CDT (5/16) 1:04 AM CDT (5/16)
Length of Visible Light 15h 55m
Length of Day
14h 48m
Waxing Crescent, 36% of the Moon is Illuminated
May 16
Waxing Crescent
May 17
First Quarter
May 24
Full
May 31
Last Quarter
Jun 8
New

Hourly Weather History & Observations

Time (CDT) Temp. Windchill Dew Point Humidity Pressure Visibility Wind Dir Wind Speed Gust Speed Precip Events Conditions
12:13 AM 60.8 °F - 39.2 °F 45% 29.91 in - Calm Calm - N/A   Clear
12:33 AM 60.8 °F - 42.8 °F 52% 29.91 in 10.0 mi Calm Calm - N/A   Clear
12:53 AM 60.8 °F - 42.8 °F 52% 29.91 in 10.0 mi Calm Calm - N/A   Clear
1:13 AM 59.0 °F - - N/A% 29.91 in 10.0 mi Calm Calm - N/A   Clear
1:33 AM 60.8 °F - - N/A% - 10.0 mi Calm Calm - N/A   Clear
1:53 AM 60.8 °F - 42.8 °F 52% 29.91 in 10.0 mi Calm Calm - N/A   Clear
2:13 AM 33.8 °F 30.8 °F - N/A% - 10.0 mi SSW 3.5 mph - N/A   Clear
2:33 AM 57.2 °F - 41.0 °F 55% 29.91 in 10.0 mi Calm Calm - N/A   Clear
2:53 AM 55.4 °F - 41.0 °F 58% - 10.0 mi Calm Calm - N/A   Clear
3:14 AM 55.4 °F - - N/A% 29.90 in 10.0 mi Calm Calm - N/A   Clear
3:33 AM 53.6 °F - 39.2 °F 58% 29.90 in 10.0 mi Calm Calm - N/A   Unknown
3:53 AM 53.6 °F - 39.2 °F 58% 29.90 in 10.0 mi North - - N/A Thunderstorm Thunderstorm
4:13 AM 55.4 °F - 39.2 °F 54% 29.90 in 10.0 mi SE 4.6 mph - N/A   Clear
4:34 AM 53.6 °F - 39.2 °F 58% 29.90 in 10.0 mi Calm Calm - N/A   Clear
4:53 AM 53.6 °F - 39.2 °F 58% 29.90 in 10.0 mi Calm Calm - N/A   Clear
5:13 AM 51.8 °F - 39.2 °F 62% 29.90 in - Calm Calm - N/A   Clear
5:33 AM 53.6 °F - 39.2 °F 58% 29.90 in 10.0 mi Calm Calm - N/A   Unknown
5:53 AM 53.6 °F - 39.2 °F 58% 29.91 in 10.0 mi Calm Calm - N/A   Clear
6:13 AM 53.6 °F - 39.2 °F 58% 29.91 in 10.0 mi Calm Calm - N/A   Clear
6:33 AM 53.6 °F - 39.2 °F 58% 29.92 in 10.0 mi East 3.5 mph - N/A   Clear
6:53 AM 51.8 °F - 39.2 °F 62% 29.92 in 10.0 mi Calm Calm - N/A   Clear
7:13 AM 53.6 °F - 42.8 °F 67% 29.91 in 10.0 mi SE 3.5 mph - N/A   Clear
7:33 AM 57.2 °F - 44.6 °F 63% 29.92 in 10.0 mi Calm Calm - N/A   Clear
7:53 AM 60.8 °F - 46.4 °F 59% 29.91 in 5.0 mi NE 3.5 mph - N/A   Haze
8:13 AM 64.4 °F - 46.4 °F 52% 29.91 in 7.0 mi Calm Calm - N/A   Clear
8:33 AM 69.8 °F - 44.6 °F 40% 29.92 in 10.0 mi South 3.5 mph - N/A   Clear
8:52 AM 71.6 °F - 42.8 °F 35% 29.91 in 10.0 mi SSE 4.6 mph - N/A   Clear
9:13 AM 73.4 °F - 41.0 °F 31% 29.90 in 10.0 mi SE 4.6 mph - N/A   Clear
9:33 AM 73.4 °F - 39.2 °F 29% 29.90 in - SE 6.9 mph - N/A   Clear
9:53 AM 75.2 °F - 39.2 °F 27% 29.90 in 10.0 mi SE 6.9 mph - N/A   Clear
10:11 AM 75.2 °F - 39.2 °F 27% 29.89 in 10.0 mi ESE 6.9 mph - N/A   Clear
10:33 AM 75.2 °F - 39.2 °F 27% 29.89 in 10.0 mi SE 6.9 mph - N/A   Clear
10:53 AM 77.0 °F - 39.2 °F 26% 29.89 in 10.0 mi SE 11.5 mph 17.3 mph N/A   Clear
11:14 AM 78.8 °F - 37.4 °F 23% 29.88 in 10.0 mi SE 10.4 mph - N/A   Clear
11:29 AM 78.8 °F - 37.4 °F 23% 29.88 in 10.0 mi North - - N/A   Clear
11:53 AM 80.6 °F - 37.4 °F 21% 29.87 in 10.0 mi SSE 13.8 mph 19.6 mph N/A   Clear
12:13 PM 80.6 °F - 37.4 °F 21% 29.87 in 10.0 mi SSE 9.2 mph 18.4 mph N/A   Clear
12:33 PM 80.6 °F - 35.6 °F 20% 29.86 in 10.0 mi SSE 11.5 mph 18.4 mph N/A   Clear
12:53 PM 80.6 °F - 37.4 °F 21% 29.86 in 10.0 mi South 10.4 mph - N/A   Clear
1:33 PM 82.4 °F - 35.6 °F 19% 29.85 in 10.0 mi SE 12.7 mph 17.3 mph N/A   Clear
1:53 PM 80.6 °F - 35.6 °F 20% 29.85 in 10.0 mi SE 11.5 mph 20.7 mph N/A   Clear
2:13 PM 80.6 °F - 33.8 °F 18% 29.85 in 10.0 mi SE 11.5 mph 20.7 mph N/A   Clear
2:33 PM 80.6 °F - 33.8 °F 18% 29.86 in 10.0 mi SE 10.4 mph 18.4 mph N/A   Clear
2:53 PM 80.6 °F - 33.8 °F 18% 29.86 in 10.0 mi South 11.5 mph - N/A   Scattered Clouds
3:13 PM 82.4 °F - 33.8 °F 17% 29.86 in 10.0 mi SSE 10.4 mph - N/A   Scattered Clouds
3:33 PM 80.6 °F - 33.8 °F 18% 29.85 in 10.0 mi SSE 8.1 mph - N/A   Clear
3:53 PM 80.6 °F - 33.8 °F 18% 29.83 in 10.0 mi SE 12.7 mph - N/A   Clear
4:13 PM 80.6 °F - 35.6 °F 20% 29.83 in 10.0 mi SSE 8.1 mph - N/A   Clear
4:33 PM 80.6 °F - 33.8 °F 18% 29.82 in 10.0 mi SSE 12.7 mph - N/A   Scattered Clouds
4:53 PM 80.6 °F - 33.8 °F 18% 29.82 in 10.0 mi South 9.2 mph - N/A   Mostly Cloudy
5:13 PM 78.8 °F - 37.4 °F 23% 29.82 in 10.0 mi SW 6.9 mph - N/A   Scattered Clouds
5:33 PM 69.8 °F - 48.2 °F 46% 29.84 in 10.0 mi WSW 15.0 mph 21.9 mph N/A Rain Light Rain
5:53 PM 66.2 °F - 51.8 °F 60% 29.84 in 10.0 mi West 12.7 mph 19.6 mph N/A Rain Light Rain
6:13 PM 64.4 °F - 55.4 °F 73% 29.84 in 10.0 mi West 9.2 mph - 0.01 in Rain Rain
6:33 PM 62.6 °F - 55.4 °F 77% 29.84 in 10.0 mi WNW 4.6 mph - 0.02 in Rain Light Rain
6:53 PM 64.4 °F - 55.4 °F 73% 29.84 in 10.0 mi Calm Calm - N/A Rain Light Rain
7:13 PM 62.6 °F - 57.2 °F 82% 29.83 in 10.0 mi NE 6.9 mph - N/A Rain Light Rain
7:33 PM 62.6 °F - 57.2 °F 82% 29.83 in 10.0 mi NE 8.1 mph - N/A Rain Light Rain
7:53 PM 62.6 °F - 57.2 °F 82% 29.83 in 10.0 mi NE 4.6 mph - N/A Rain Light Rain
8:13 PM 62.6 °F - 55.4 °F 77% 29.82 in 10.0 mi ENE 6.9 mph - N/A   Light Drizzle
8:33 PM 62.6 °F - 57.2 °F 82% 29.84 in 10.0 mi North 3.5 mph - N/A Rain , Thunderstorm Light Thunderstorms and Rain
8:53 PM 62.6 °F - 57.2 °F 82% 29.85 in 10.0 mi Calm Calm - 0.02 in Rain Rain
9:13 PM 62.6 °F - 57.2 °F 82% 29.85 in 10.0 mi Calm Calm - N/A Rain Light Rain
9:33 PM 60.8 °F - 57.2 °F 88% 29.86 in 10.0 mi North 6.9 mph - N/A Rain Light Rain
9:53 PM 62.6 °F - 55.4 °F 77% 29.86 in 10.0 mi NE 4.6 mph - 0.01 in Rain Light Rain
10:13 PM 60.8 °F - 55.4 °F 82% 29.86 in 10.0 mi ENE 5.8 mph - N/A Rain Light Rain
10:33 PM 62.6 °F - 55.4 °F 77% 29.86 in 10.0 mi East 4.6 mph - 0.01 in Rain Light Rain
10:53 PM 62.6 °F - 53.6 °F 72% 29.87 in 10.0 mi ESE 5.8 mph - N/A   Overcast
11:13 PM 60.8 °F - 55.4 °F 82% 29.87 in 7.0 mi SE 9.2 mph - 0.05 in Rain Heavy Rain
11:33 PM 60.8 °F - 55.4 °F 82% 29.87 in 10.0 mi SSE 8.1 mph - 0.02 in Rain Rain
11:53 PM 60.8 °F - 57.2 °F 88% 29.87 in 7.0 mi SE 9.2 mph - 0.03 in Rain , Thunderstorm Rain